Henrik Krøyer Holme

KL  EN  DA
ASIAQ
Weather Now GREENLAND SURVEY
Updated [WGT/WGST] Temperature [°C] Wind [m/s] Air pressure [hPa] Relative humidity [%] Precipitation [mm]
Present Wind chill Speed Max
21.01 19:00-11,1-25,421,6 ⇙27,396689n/a
21.01 18:00-11,8-26,120,6 ⇙25,796889n/a
21.01 17:00-12,5-27,421,6 ⇙25,797188n/a
21.01 16:00-13,40,0n/an/a97487n/a
21.01 15:00-12,80,0n/an/a97788n/a
21.01 14:00-13,20,0n/an/a97888n/a
21.01 13:00-15,3-26,07,7 ⇓11,398086n/a
21.01 12:00-15,8-26,06,7 ⇙9,898285n/a
21.01 11:00-17,0-28,27,7 ⇓9,398484n/a
21.01 10:00-17,9-28,76,7 ⇓8,298684n/a
21.01 09:00-18,9-29,66,2 ⇓8,898883n/a
21.01 08:00-20,3-30,95,7 ⇓7,298982n/a
21.01 07:00-21,0-31,85,7 ⇓7,799081n/a
21.01 06:00-22,1-33,25,7 ⇓7,299180n/a
21.01 05:00-22,9-34,25,7 ⇓8,299280n/a
21.01 04:00-23,7-34,75,1 ⇓7,799379n/a
21.01 03:00-24,9-35,64,6 ⇓5,799578n/a
21.01 02:00-26,2-36,64,1 ⇓5,199577n/a
21.01 01:00-27,2-36,33,1 ⇓4,199776n/a
21.01 00:00-26,9-36,83,6 ⇓5,199877n/a
20.01 23:00-27,2-36,33,1 ⇓4,199977n/a
20.01 22:00-27,0-34,12,1 ⇓3,1100077n/a
20.01 21:00-27,7-33,31,5 ⇓2,6100177n/a
20.01 20:00-25,7-31,11,5 ⇖2,6100280n/a
20.01 19:00-27,2-34,42,1 ⇑2,6100378n/a
Position: (80.649444444,-13.7119444444)

[Back]